Location: La Oliva
(42.2466°N, 2.9955°E)
Time: 20:16:13
(UTC+00:00)

Cosmos 2297 Rocket - Visible Passes

Search period start: 23 July 2021 00:00
Search period end: 02 August 2021 00:00
Orbit: 838 x 844 km, 71.0° (Epoch: 23 July)

Date Brightness Start Highest point End Pass type
(mag) Time Alt. Az. Time Alt. Az. Time Alt. Az.
23 Jul 2.4 01:01:16 52° SE 01:01:50 55° ESE 01:07:21 10° NNE visible
23 Jul 3.7 02:43:04 16° W 02:46:13 25° NW 02:50:49 10° N visible
24 Jul 2.5 00:46:29 51° ESE 00:46:42 52° ESE 00:52:11 10° NE visible
24 Jul 3.6 02:28:17 18° W 02:31:02 26° NW 02:35:43 10° N visible
25 Jul 2.6 00:31:41 49° ESE 00:31:41 49° ESE 00:37:01 10° NE visible
25 Jul 3.6 02:13:29 20° W 02:15:51 27° NW 02:20:37 10° N visible
26 Jul 2.8 00:16:50 45° E 00:16:50 45° E 00:21:50 10° NE visible
26 Jul 3.6 01:58:38 23° W 02:00:41 28° NW 02:05:32 10° N visible
27 Jul 2.9 00:01:58 42° E 00:01:58 42° E 00:06:39 10° NE visible
27 Jul 3.5 01:43:46 25° W 01:45:30 29° NW 01:50:25 10° N visible
27 Jul 3.0 23:47:04 38° E 23:47:04 38° E 23:51:28 10° NE visible
28 Jul 3.4 01:28:52 27° W 01:30:19 31° NW 01:35:19 10° N visible
28 Jul 3.2 23:32:08 35° E 23:32:08 35° E 23:36:16 10° NE visible
29 Jul 3.3 01:13:56 29° W 01:15:08 32° NW 01:20:12 10° N visible
29 Jul 3.3 23:17:11 33° ENE 23:17:11 33° ENE 23:21:05 10° NE visible
30 Jul 3.3 00:58:58 32° WNW 00:59:58 34° NW 01:05:06 10° N visible
30 Jul 3.4 23:02:11 31° ENE 23:02:11 31° ENE 23:05:53 10° NE visible
31 Jul 3.2 00:43:59 34° WNW 00:44:47 35° WNW 00:49:59 10° N visible
31 Jul 3.4 22:47:11 29° ENE 22:47:11 29° ENE 22:50:41 10° NE visible
01 Aug 3.2 00:28:57 36° WNW 00:29:37 37° WNW 00:34:52 10° N visible
01 Aug 3.5 22:32:07 27° ENE 22:32:07 27° ENE 22:35:28 10° NE visible
